User: anonymous   Login
Location: Columbia
(38.9520°N, 92.3340°W)
Time: 02:44:32
(UTC-05:00)
Language:

Meteor 1-4 Rocket - Orbit

View from above orbital plane
View from above orbital plane
View from above satellite
View from above satellite

Ground track
Ground track

The orbit data is extracted from the following two-line orbital elements,

1  4394U 70037B   18147.89375538 +.00000723 +00000-0 +24103-4 0  9992
2  4394 081.2408 329.8720 0040518 027.9378 332.4020 15.28841633617896
Epoch (UTC): 27 May 2018 21:27:00
Eccentricity: 0.0040518
inclination: 81.2408°
perigee height: 451 km
apogee height: 507 km
right ascension of ascending node: 329.8720°
argument of perigee: 27.9378°
revolutions per day: 15.28841633
mean anomaly at epoch: 332.4020°
orbit number at epoch: 61789

The dashed part of the orbit path shows where the satellite is in the earth's shadow,  

DLR